User: anonymous   Login
Location: Caltech
(34.1382°N, 118.1253°W)
Time: 12:33:29
(UTC-07:00)
Language:

Oscar 11 - Orbit

View from above orbital plane
View from above orbital plane
View from above satellite
View from above satellite

Ground track
Ground track

The orbit data is extracted from the following two-line orbital elements,

1 14781U 84021B   16182.19314641  .00000111  00000-0  20079-4 0  9998
2 14781  97.7483 233.7989 0007034 272.7932  87.2477 14.82758812738186
Epoch (UTC): 30 June 2016 04:38:07
Eccentricity: 0.0007034
inclination: 97.7483°
perigee height: 616 km
apogee height: 625 km
right ascension of ascending node: 233.7989°
argument of perigee: 272.7932°
revolutions per day: 14.82758812
mean anomaly at epoch: 87.2477°
orbit number at epoch: 73818

The dashed part of the orbit path shows where the satellite is in the earth's shadow,  

DLR